This demonstration page uses our WeatherBlox Daily Observations layout. Learn more.

Left ArrowRight Arrow

40.92945, -100.16068

Hourly Observations for November 23, 2019

Temp ( °F °C ) Dew Point ( °F °C ) Humidity (%) Winds ( mph kmh ) Pressure ( in mb ) Visibility ( mi km ) Precip ( " mm )
12:15 am 00:15 Clear 26 -3.6 24 -4.5 94 94 W 6 9 30.12 1020 10 16.0934 0 0
12:35 am 00:35 Clear 26 -3.4 24 -4.4 93 93 W 5 7 30.12 1020 10 16.0934 0 0
12:55 am 00:55 Clear 25 -4 24 -4.7 95 95 W 3 6 30.13 1020 10 16.0934 0 0
1:15 am 01:15 Clear 24 -4.2 23 -4.8 96 96 Calm 30.11 1020 10 16.0934 0 0
1:35 am 01:35 Clear 24 -4.3 23 -5 95 95 Calm 30.1 1019 10 16.0934 0 0
1:55 am 01:55 Clear 24 -4.3 23 -5 95 95 SW 3 6 30.1 1019 10 16.0934 0 0
2:15 am 02:15 Clear 24 -4.5 23 -5.1 96 96 W 5 7 30.11 1020 10 16.0934 0 0
2:35 am 02:35 Clear 22 -5.3 22 -5.7 97 97 WNW 3 6 30.11 1020 10 16.0934 0 0
2:55 am 02:55 Clear 23 -5.2 22 -5.7 96 96 W 5 7 30.11 1020 10 16.0934 0 0
3:15 am 03:15 Clear 23 -5 22 -5.5 96 96 WSW 5 7 30.1 1019 10 16.0934 0 0
3:35 am 03:35 Clear 22 -5.4 21 -6 96 96 W 6 9 30.1 1019 10 16.0934 0 0
3:55 am 03:55 Clear 22 -5.5 21 -6 96 96 W 3 6 30.1 1019 10 16.0934 0 0
4:15 am 04:15 Clear 22 -5.6 21 -6.2 96 96 WSW 3 6 30.08 1019 10 16.0934 0 0
4:35 am 04:35 Clear 22 -5.6 21 -6.1 96 96 WSW 5 7 30.07 1018 10 16.0934 0 0
4:55 am 04:55 Clear 22 -5.7 21 -6.3 96 96 WSW 3 6 30.08 1019 10 16.0934 0 0
5:15 am 05:15 Clear 22 -5.5 21 -6 96 96 W 8 13 30.08 1019 10 16.0934 0 0
5:35 am 05:35 Clear 22 -5.7 20 -6.5 94 94 WNW 6 9 30.07 1018 10 16.0934 0 0
5:55 am 05:55 Clear 21 -6.2 19 -7 94 94 WNW 6 9 30.09 1019 10 16.0934 0 0
6:15 am 06:15 Clear 21 -6.2 19 -7 94 94 WNW 8 13 30.08 1019 10 16.0934 0 0
6:35 am 06:35 Clear 21 -6.2 20 -6.9 95 95 WNW 7 11 30.09 1019 10 16.0934 0 0
6:55 am 06:55 Clear 22 -5.8 20 -6.7 93 93 WNW 10 17 30.1 1019 10 16.0934 0 0
7:15 am 07:15 Clear 22 -5.6 20 -6.9 91 91 WNW 12 19 30.09 1019 10 16.0934 0 0
7:35 am 07:35 Clear 23 -4.9 20 -6.5 89 89 WNW 12 19 30.1 1019 10 16.0934 0 0
7:55 am 07:55 Sunny 23 -4.8 20 -6.5 88 88 WNW 13 20 30.11 1019 10 16.0934 0 0
8:15 am 08:15 Sunny 24 -4.5 21 -6.2 88 88 WNW 9 15 30.1 1019 10 16.0934 0 0
8:35 am 08:35 Sunny 26 -3.6 22 -5.5 87 87 WNW 10 17 30.1 1019 10 16.0934 0 0
8:55 am 08:55 Sunny 27 -2.6 24 -4.7 86 86 WNW 13 20 30.08 1019 10 16.0934 0 0
9:15 am 09:15 Sunny 29 -1.6 25 -3.9 85 85 WNW 15 24 30.08 1019 10 16.0934 0 0
9:35 am 09:35 Sunny 31 -0.8 26 -3.2 84 84 WNW 12 19 30.06 1018 10 16.0934 0 0
9:55 am 09:55 Sunny 32 0 28 -2.4 84 84 WNW 15 24 30.07 1018 10 16.0934 0 0
10:15 am 10:15 Sunny 34 1 29 -1.8 82 82 WNW 14 22 30.06 1018 10 16.0934 0 0
10:35 am 10:35 Sunny 36 2.2 30 -1.2 78 78 WNW 14 22 30.06 1018 10 16.0934 0 0
10:55 am 10:55 Sunny 38 3.5 31 -0.8 74 74 WNW 16 26 30.04 1017 10 16.0934 0 0
11:15 am 11:15 Sunny 40 4.5 32 -0.2 72 72 WNW 15 24 30.02 1017 10 16.0934 0 0
11:35 am 11:35 Sunny 42 5.5 32 0.1 69 69 WNW 16 26 30.01 1016 10 16.0934 0 0
11:55 am 11:55 Sunny 44 6.6 33 0.5 65 65 WNW 14 22 29.99 1016 10 16.0934 0 0
12:15 pm 12:15 Sunny 48 8.7 32 0.2 56 56 NNW 17 28 29.96 1015 10 16.0934 0 0
12:35 pm 12:35 Sunny 50 10.2 31 -0.7 47 47 WNW 13 20 29.94 1014 10 16.0934 0 0
12:55 pm 12:55 Sunny 50 10 32 0.2 51 51 WNW 13 20 29.93 1014 10 16.0934 0 0
1:15 pm 13:15 Sunny 53 11.8 30 -1.2 41 41 NW 16 26 29.9 1013 10 16.0934 0 0
1:35 pm 13:35 Sunny 55 12.5 29 -1.6 38 38 NNW 15 24 29.9 1012 10 16.0934 0 0
1:55 pm 13:55 Sunny 55 12.9 29 -1.8 36 36 NNW 14 22 29.88 1012 10 16.0934 0 0
2:15 pm 14:15 Sunny 56 13.4 29 -1.8 35 35 NW 16 26 29.88 1012 10 16.0934 0 0
2:35 pm 14:35 Sunny 56 13.5 28 -2.4 33 33 NW 14 22 29.87 1011 10 16.0934 0 0
3:15 pm 15:15 Sunny 57 14.1 27 -2.6 32 32 NW 13 20 29.86 1011 10 16.0934 0 0
3:35 pm 15:35 Sunny 57 14.1 28 -2.2 33 33 WNW 12 19 29.86 1011 10 16.0934 0 0
3:55 pm 15:55 Sunny 57 13.9 28 -2.1 33 33 NW 9 15 29.87 1011 10 16.0934 0 0
4:15 pm 16:15 Sunny 56 13.1 30 -1.2 37 37 NW 6 9 29.87 1012 10 16.0934 0 0
4:35 pm 16:35 Sunny 53 11.9 31 -0.4 43 43 W 7 11 29.88 1012 10 16.0934 0 0
4:55 pm 16:55 Sunny 51 10.3 31 -0.3 48 48 W 5 7 29.9 1012 10 16.0934 0 0
5:15 pm 17:15 Sunny 48 8.8 29 -1.7 48 48 W 7 11 29.91 1013 10 16.0934 0 0
5:35 pm 17:35 Clear 45 7.1 27 -3 49 49 WSW 7 11 29.93 1013 10 16.0934 0 0
5:55 pm 17:55 Clear 42 5.5 26 -3.1 54 54 W 8 13 29.94 1014 10 16.0934 0 0
6:15 pm 18:15 Clear 40 4.3 27 -2.8 60 60 WSW 6 9 29.95 1014 10 16.0934 0 0
6:35 pm 18:35 Clear 39 4 26 -3.3 59 59 W 7 11 29.96 1014 10 16.0934 0 0
6:55 pm 18:55 Clear 38 3.4 26 -3.1 63 63 W 8 13 29.96 1015 10 16.0934 0 0
7:15 pm 19:15 Clear 34 0.9 26 -3.1 75 75 WNW 7 11 30 1016 10 16.0934 0 0
7:35 pm 19:35 Clear 33 0.4 26 -3.5 75 75 NW 7 11 30 1016 10 16.0934 0 0
7:55 pm 19:55 Clear 32 0 26 -3.5 78 78 NW 7 11 30.02 1016 10 16.0934 0 0
8:15 pm 20:15 Clear 32 0.2 26 -3.5 76 76 WNW 6 9 30.01 1016 10 16.0934 0 0
8:35 pm 20:35 Clear 31 -0.4 26 -3.3 81 81 W 6 9 30.02 1017 10 16.0934 0 0
8:55 pm 20:55 Clear 31 -0.7 26 -3.3 83 83 WNW 7 11 30.02 1017 10 16.0934 0 0
9:15 pm 21:15 Clear 32 -0.1 26 -3.2 80 80 W 10 17 30.02 1017 10 16.0934 0 0
9:35 pm 21:35 Clear 32 0 27 -3 80 80 WNW 10 17 30.02 1016 10 16.0934 0 0
9:55 pm 21:55 Clear 32 0.1 26 -3.4 78 78 WNW 12 19 30.01 1016 10 16.0934 0 0
10:15 pm 22:15 Clear 33 0.5 26 -3.5 75 75 WNW 10 17 30 1016 10 16.0934 0 0
10:35 pm 22:35 Clear 32 0.2 25 -4 74 74 WNW 12 19 30.01 1016 10 16.0934 0 0
10:55 pm 22:55 Clear 32 0 25 -4 75 75 WNW 13 20 30.01 1016 10 16.0934 0 0
11:15 pm 23:15 Clear 33 0.3 25 -4 73 73 NW 9 15 30 1016 10 16.0934 0 0
11:35 pm 23:35 Clear 32 0.1 26 -3.5 77 77 WNW 9 15 30.02 1016 10 16.0934 0 0
11:55 pm 23:55 Clear 31 -0.5 26 -3.4 81 81 WNW 5 7 30.02 1017 10 16.0934 0 0

Powered by AerisWeather